When you browse on this site, cookies collect data to enhance your experience and personalize the content and advertising you see.
Visit our Privacy Policy to learn more. By continuing to use the site, you agree to this use of cookies and data.
  • en France
  • Liste des pays
  • À 7 jours
  • Température de l'eau
  • Carte satellitaire
  • Carte météo
  • Widgets météo
  • user-avatar
    Se connecter

    Météo par heure à Sankt Pölten

    Ce jour, 10 Décembre, Lundi

    Heure Température Précipitation Vent Pression Humidité
    00:00 +5°C° 0.3 mm 5 m/s 729 mmHg 84%
    01:00 +5°C° 0 mm 5 m/s 729 mmHg 84%
    02:00 +5°C° 0.2 mm 5 m/s 730 mmHg 83%
    03:00 +3°C° 0.2 mm 5 m/s 730 mmHg 83%
    04:00 +3°C° 0.2 mm 6 m/s 730 mmHg 82%
    05:00 +3°C° 0.1 mm 6 m/s 731 mmHg 80%
    06:00 +3°C° 0.1 mm 6 m/s 732 mmHg 79%
    07:00 +2°C° 0 mm 5 m/s 732 mmHg 78%
    08:00 +2°C° 0 mm 6 m/s 733 mmHg 76%
    09:00 +2°C° 0 mm 6 m/s 733 mmHg 74%
    10:00 +2°C° 0 mm 7 m/s 733 mmHg 71%
    11:00 +2°C° 0.1 mm 7 m/s 734 mmHg 70%
    12:00 +3°C° 0.1 mm 7 m/s 734 mmHg 69%
    13:00 +3°C° 0 mm 6 m/s 734 mmHg 67%
    14:00 +2°C° 0.1 mm 6 m/s 734 mmHg 69%
    15:00 +2°C° 0.1 mm 6 m/s 735 mmHg 71%
    16:00 +1°C° 0.1 mm 5 m/s 735 mmHg 72%
    17:00 +1°C° 0 mm 5 m/s 735 mmHg 74%
    18:00 +1°C° 0 mm 5 m/s 735 mmHg 77%
    19:00 0°C° 0 mm 5 m/s 735 mmHg 79%
    20:00 0°C° 0.1 mm 4 m/s 735 mmHg 80%
    21:00 0°C° 0.1 mm 4 m/s 735 mmHg 81%
    22:00 0°C° 0.1 mm 4 m/s 735 mmHg 83%
    23:00 0°C° 0.1 mm 4 m/s 735 mmHg 83%

    Demain, 11 Décembre, Mardi

    Heure Température Précipitation Vent Pression Humidité
    00:00 0°C° 0.1 mm 4 m/s 735 mmHg 82%
    01:00 -1°C° 0.1 mm 4 m/s 735 mmHg 82%
    02:00 0°C° 0.1 mm 5 m/s 735 mmHg 82%
    03:00 0°C° 0.1 mm 5 m/s 735 mmHg 82%
    04:00 0°C° 0.1 mm 5 m/s 735 mmHg 81%
    05:00 -1°C° 0.2 mm 6 m/s 735 mmHg 81%
    06:00 -1°C° 0.2 mm 6 m/s 735 mmHg 81%
    07:00 -1°C° 0.2 mm 6 m/s 735 mmHg 81%
    08:00 -1°C° 0.3 mm 6 m/s 735 mmHg 80%
    09:00 -1°C° 0.3 mm 7 m/s 735 mmHg 79%
    10:00 0°C° 0.3 mm 7 m/s 735 mmHg 78%
    11:00 0°C° 0.1 mm 7 m/s 735 mmHg 76%
    12:00 0°C° 0.1 mm 7 m/s 735 mmHg 74%
    13:00 0°C° 0.1 mm 7 m/s 735 mmHg 72%
    14:00 0°C° 0.1 mm 7 m/s 735 mmHg 74%
    15:00 0°C° 0.1 mm 7 m/s 736 mmHg 76%
    16:00 -1°C° 0.1 mm 7 m/s 736 mmHg 77%
    17:00 -1°C° 0.2 mm 7 m/s 736 mmHg 78%
    18:00 -1°C° 0.2 mm 7 m/s 736 mmHg 79%
    19:00 -1°C° 0.2 mm 6 m/s 736 mmHg 80%
    20:00 -1°C° 0.3 mm 6 m/s 736 mmHg 81%
    21:00 -1°C° 0.3 mm 6 m/s 736 mmHg 82%
    22:00 -1°C° 0.3 mm 6 m/s 736 mmHg 83%
    23:00 -1°C° 0.4 mm 6 m/s 737 mmHg 84%

    Après-demain, 12 Décembre, Mercredi

    Heure Température Précipitation Vent Pression Humidité
    00:00 -1°C° 0.4 mm 6 m/s 737 mmHg 85%
    01:00 0°C° 0.4 mm 5 m/s 737 mmHg 86%
    02:00 0°C° 0.4 mm 5 m/s 737 mmHg 87%
    03:00 -1°C° 0.4 mm 5 m/s 737 mmHg 87%
    04:00 -1°C° 0.4 mm 4 m/s 737 mmHg 88%
    05:00 -1°C° 0.5 mm 4 m/s 737 mmHg 89%
    06:00 -1°C° 0.5 mm 4 m/s 737 mmHg 89%
    07:00 0°C° 0.5 mm 3 m/s 738 mmHg 90%
    08:00 0°C° 0.2 mm 3 m/s 738 mmHg 89%
    09:00 0°C° 0.2 mm 3 m/s 738 mmHg 88%
    10:00 0°C° 0.2 mm 3 m/s 738 mmHg 87%
    11:00 +1°C° 0.1 mm 3 m/s 738 mmHg 86%
    12:00 +1°C° 0.1 mm 3 m/s 738 mmHg 84%
    13:00 +1°C° 0.1 mm 3 m/s 738 mmHg 83%
    14:00 +2°C° 0.1 mm 2 m/s 738 mmHg 85%
    15:00 +1°C° 0.1 mm 2 m/s 738 mmHg 87%
    16:00 +1°C° 0.1 mm 2 m/s 738 mmHg 89%
    17:00 +1°C° 0.1 mm 1 m/s 738 mmHg 91%
    18:00 +1°C° 0.1 mm 1 m/s 738 mmHg 92%
    19:00 0°C° 0.1 mm 1 m/s 739 mmHg 93%
    20:00 0°C° 0.1 mm 1 m/s 739 mmHg 93%
    21:00 -1°C° 0.1 mm 1 m/s 739 mmHg 93%
    22:00 -1°C° 0.1 mm 1 m/s 739 mmHg 93%
    23:00 -1°C° 0 mm 1 m/s 739 mmHg 93%

    13 Décembre, Jeudi

    Heure Température Précipitation Vent Pression Humidité
    00:00 -2°C° 0 mm 1 m/s 739 mmHg 93%
    01:00 -2°C° 0 mm 1 m/s 739 mmHg 93%
    02:00 -2°C° 0 mm 1 m/s 738 mmHg 93%
    03:00 -3°C° 0 mm 1 m/s 738 mmHg 92%
    04:00 -3°C° 0 mm 1 m/s 738 mmHg 92%
    05:00 -3°C° 0 mm 1 m/s 738 mmHg 92%
    06:00 -3°C° 0 mm 1 m/s 738 mmHg 92%
    07:00 -3°C° 0 mm 1 m/s 738 mmHg 92%
    08:00 -2°C° 0 mm 1 m/s 738 mmHg 89%
    09:00 -1°C° 0 mm 1 m/s 738 mmHg 86%
    10:00 0°C° 0 mm 1 m/s 738 mmHg 83%
    11:00 +1°C° 0 mm 1 m/s 737 mmHg 81%
    12:00 -1°C° 0 mm 2 m/s 737 mmHg 79%
    13:00 +1°C° 0 mm 2 m/s 737 mmHg 77%
    14:00 -1°C° 0 mm 2 m/s 737 mmHg 80%
    15:00 0°C° 0 mm 1 m/s 737 mmHg 84%
    16:00 0°C° 0 mm 1 m/s 737 mmHg 87%
    17:00 -1°C° 0 mm 1 m/s 737 mmHg 89%
    18:00 -2°C° 0 mm 1 m/s 737 mmHg 91%
    19:00 -2°C° 0 mm 1 m/s 738 mmHg 93%
    20:00 -2°C° 0 mm 1 m/s 738 mmHg 93%
    21:00 -2°C° 0 mm 1 m/s 738 mmHg 92%
    22:00 -2°C° 0 mm 1 m/s 738 mmHg 92%
    23:00 -2°C° 0 mm 1 m/s 739 mmHg 92%

    14 Décembre, Vendredi

    Heure Température Précipitation Vent Pression Humidité
    00:00 -3°C° 0 mm 1 m/s 739 mmHg 92%
    01:00 -3°C° 0 mm 1 m/s 739 mmHg 93%
    02:00 -3°C° 0 mm 1 m/s 739 mmHg 93%
    03:00 -3°C° 0 mm 1 m/s 739 mmHg 93%
    04:00 -3°C° 0 mm 1 m/s 739 mmHg 92%
    05:00 -3°C° 0 mm 1 m/s 739 mmHg 92%
    06:00 -3°C° 0 mm 1 m/s 739 mmHg 92%
    07:00 -3°C° 0 mm 1 m/s 739 mmHg 92%
    08:00 -2°C° 0 mm 1 m/s 740 mmHg 88%
    09:00 -1°C° 0 mm 1 m/s 740 mmHg 85%
    10:00 0°C° 0 mm 1 m/s 740 mmHg 82%
    11:00 0°C° 0 mm 1 m/s 740 mmHg 80%
    12:00 -1°C° 0 mm 2 m/s 740 mmHg 78%
    13:00 +1°C° 0 mm 2 m/s 740 mmHg 75%
    14:00 -1°C° 0 mm 2 m/s 740 mmHg 80%
    15:00 -2°C° 0 mm 2 m/s 740 mmHg 84%
    16:00 -1°C° 0 mm 1 m/s 740 mmHg 88%
    17:00 -1°C° 0 mm 1 m/s 741 mmHg 89%
    18:00 -2°C° 0 mm 1 m/s 741 mmHg 90%
    19:00 -3°C° 0 mm 1 m/s 742 mmHg 91%
    20:00 -3°C° 0 mm 1 m/s 742 mmHg 91%
    21:00 -3°C° 0 mm 1 m/s 742 mmHg 90%
    22:00 -3°C° 0 mm 1 m/s 743 mmHg 90%
    23:00 -3°C° 0 mm 1 m/s 743 mmHg 89%

    15 Décembre, Samedi

    Heure Température Précipitation Vent Pression Humidité
    00:00 -3°C° 0 mm 1 m/s 743 mmHg 89%
    01:00 -3°C° 0 mm 1 m/s 743 mmHg 89%
    02:00 -3°C° 0 mm 1 m/s 743 mmHg 88%
    03:00 -4°C° 0 mm 1 m/s 743 mmHg 88%
    04:00 -4°C° 0 mm 1 m/s 743 mmHg 88%
    05:00 -5°C° 0 mm 0 m/s 743 mmHg 87%
    06:00 -5°C° 0 mm 0 m/s 744 mmHg 87%
    07:00 -5°C° 0 mm 0 m/s 744 mmHg 87%
    08:00 -4°C° 0 mm 0 m/s 744 mmHg 84%
    09:00 -2°C° 0 mm 0 m/s 745 mmHg 80%
    10:00 -1°C° 0 mm 0 m/s 745 mmHg 77%
    11:00 0°C° 0 mm 0 m/s 745 mmHg 75%
    12:00 +2°C° 0 mm 1 m/s 744 mmHg 72%
    13:00 +2°C° 0 mm 1 m/s 744 mmHg 70%
    14:00 +1°C° 0 mm 1 m/s 744 mmHg 76%
    15:00 0°C° 0 mm 1 m/s 744 mmHg 82%
    16:00 -1°C° 0 mm 1 m/s 744 mmHg 88%
    17:00 -2°C° 0 mm 1 m/s 744 mmHg 89%
    18:00 -2°C° 0 mm 1 m/s 744 mmHg 89%
    19:00 -3°C° 0 mm 1 m/s 745 mmHg 90%
    20:00 -3°C° 0 mm 1 m/s 745 mmHg 89%
    21:00 -3°C° 0 mm 1 m/s 745 mmHg 89%
    22:00 -3°C° 0 mm 1 m/s 745 mmHg 88%
    23:00 -3°C° 0 mm 1 m/s 745 mmHg 88%
    Voir plus